FW2415 Weather Reports


time (UTC)temp
F
wind
direction
speed
knots
gust
knots
rain 1hr
in
rain 24hr
in
rain mn
in
humidity
%
barometer
mb
20260508183006 50 300 1.7 11.3 0.00 0.00 0.00 82 1008.4
20260508182006 50 318 3.5 11.3 0.00 0.00 0.00 82 1008.4
20260508181506 50 291 5.2 11.3 0.00 0.00 0.00 82 1008.4
20260508180006 50 262 3.5 8.7 0.00 0.00 0.00 82 1008.4
20260508175506 50 282 2.6 8.7 0.00 0.00 0.00 82 1008.4
20260508175007 50 271 3.5 8.7 0.00 0.00 0.00 82 1008.4
20260508174506 50 269 2.6 7.8 0.00 0.00 0.00 82 1008.4
20260508174006 50 288 2.6 8.7 0.00 0.00 0.00 82 1008.4
20260508172506 50 261 2.6 7.0 0.00 0.00 0.00 82 1008.4
20260508172006 50 278 1.7 7.0 0.00 0.00 0.00 82 1008.4
20260508171006 50 277 2.6 7.0 0.00 0.00 0.00 82 1008.4
20260508170506 50 264 1.7 10.4 0.00 0.00 0.00 82 1008.4
20260508165006 50 248 2.6 10.4 0.00 0.00 0.00 82 1008.4
20260508164006 50 262 6.1 13.0 0.00 0.00 0.00 82 1008.4
20260508163506 50 266 4.3 10.4 0.00 0.00 0.00 82 1008.4
20260508163005 50 272 4.3 11.3 0.00 0.00 0.00 82 1008.4
20260508162506 50 272 4.3 11.3 0.00 0.00 0.00 82 1008.4
20260508162006 50 284 4.3 10.4 0.00 0.00 0.00 82 1008.4
20260508161506 50 268 5.2 10.4 0.00 0.00 0.00 82 1008.4
20260508161006 50 287 2.6 11.3 0.00 0.00 0.00 82 1008.4
20260508160506 50 270 5.2 13.9 0.00 0.00 0.00 82 1008.4
20260508160006 50 281 4.3 13.9 0.00 0.00 0.00 82 1008.4
20260508155506 50 266 6.1 13.0 0.00 0.00 0.00 82 1008.4
20260508155006 50 261 5.2 13.9 0.00 0.00 0.00 82 1008.4
20260508154506 50 248 7.0 13.9 0.00 0.00 0.00 82 1008.4
20260508153506 50 302 4.3 13.9 0.00 0.00 0.00 82 1008.4
20260508153006 50 288 4.3 13.9 0.00 0.00 0.00 82 1008.4
20260508152006 50 291 4.3 14.8 0.00 0.00 0.00 82 1008.4
20260508151506 50 296 6.1 17.4 0.00 0.00 0.00 82 1008.4
20260508151006 50 286 7.0 17.4 0.00 0.00 0.00 82 1008.4
20260508150507 50 284 11.3 17.4 0.00 0.00 0.00 82 1008.4
20260508145506 50 258 5.2 13.9 0.00 0.00 0.00 82 1008.4
20260508145006 50 283 4.3 13.9 0.00 0.00 0.00 82 1008.4
20260508144506 50 278 6.1 15.6 0.00 0.00 0.00 82 1008.4
20260508144006 50 282 7.0 15.6 0.00 0.00 0.00 82 1008.4
20260508143536 50 266 7.0 15.6 0.00 0.00 0.00 82 1008.4
20260508143010 50 301 4.3 15.6 0.00 0.00 0.00 82 1008.4
20260508142506 50 277 4.3 15.6 0.00 0.00 0.00 82 1008.4
20260508142007 50 302 4.3 13.9 0.00 0.00 0.00 82 1008.4
20260508141007 50 253 5.2 12.2 0.00 0.00 0.00 82 1008.4
20260508140506 50 317 6.1 11.3 0.00 0.00 0.00 82 1008.4
20260508140006 50 284 5.2 12.2 0.00 0.00 0.00 82 1008.4
20260508135506 50 278 4.3 12.2 0.00 0.00 0.00 82 1008.4
20260508135006 50 305 5.2 14.8 0.00 0.00 0.00 82 1008.4
20260508134506 50 260 7.0 14.8 0.00 0.00 0.00 82 1008.4
20260508133506 50 276 7.8 17.4 0.00 0.00 0.00 82 1008.4
20260508133006 50 267 3.5 14.8 0.00 0.00 0.00 82 1008.4
20260508132506 50 319 9.6 14.8 0.00 0.00 0.00 82 1008.4
20260508132006 50 315 5.2 14.8 0.00 0.00 0.00 82 1008.4
20260508131505 50 282 4.3 17.4 0.00 0.00 0.00 82 1008.4
20260508131006 50 265 8.7 17.4 0.00 0.00 0.00 82 1008.4
20260508130506 50 285 6.1 17.4 0.00 0.00 0.00 82 1008.4
20260508130006 50 272 6.1 15.6 0.00 0.00 0.00 82 1008.4
20260508125506 50 248 6.1 17.4 0.00 0.00 0.00 82 1008.4
20260508125007 50 256 8.7 17.4 0.00 0.00 0.00 82 1008.4
20260508124007 50 278 6.1 13.9 0.00 0.00 0.00 82 1008.4
20260508123506 50 260 5.2 13.9 0.00 0.00 0.00 82 1008.4
20260508123006 50 271 6.1 13.9 0.00 0.00 0.00 82 1008.4
20260508122506 50 281 4.3 11.3 0.00 0.00 0.00 82 1008.4
20260508122006 50 288 3.5 8.7 0.00 0.00 0.00 82 1008.4
20260508121506 50 275 5.2 8.7 0.00 0.00 0.00 82 1008.4
20260508115506 50 284 5.2 12.2 0.00 0.00 0.00 82 1008.4
20260508115006 50 255 6.1 17.4 0.00 0.00 0.00 82 1008.4
20260508114506 50 246 2.6 17.4 0.00 0.00 0.00 82 1008.4
20260508114006 50 261 6.1 17.4 0.00 0.00 0.00 82 1008.4
20260508113505 50 245 6.1 14.8 0.00 0.00 0.00 82 1008.4
20260508113006 50 255 4.3 14.8 0.00 0.00 0.00 82 1008.4
20260508112506 50 255 5.2 14.8 0.00 0.00 0.00 82 1008.4
20260508111006 50 258 4.3 11.3 0.00 0.00 0.00 82 1008.4
20260508110506 50 246 4.3 12.2 0.00 0.00 0.00 82 1008.4
20260508110006 50 247 5.2 12.2 0.00 0.00 0.00 82 1008.4
20260508105506 50 257 5.2 12.2 0.00 0.00 0.00 82 1008.4
20260508105006 50 271 4.3 12.2 0.00 0.00 0.00 82 1008.4
20260508104506 50 280 4.3 12.2 0.00 0.00 0.00 82 1008.4
20260508104006 50 253 4.3 12.2 0.00 0.00 0.00 82 1008.4
20260508103507 50 273 2.6 12.2 0.00 0.00 0.00 82 1008.4
20260508103006 50 275 4.3 11.3 0.00 0.00 0.00 82 1008.4
20260508102506 50 261 2.6 7.0 0.00 0.00 0.00 82 1008.4
20260508102006 50 261 2.6 12.2 0.00 0.00 0.00 82 1008.4
20260508101507 50 247 2.6 12.2 0.00 0.00 0.00 82 1008.4
20260508101007 50 235 2.6 12.2 0.00 0.00 0.00 82 1008.4
20260508100507 50 239 4.3 10.4 0.00 0.00 0.00 82 1008.4
20260508100006 50 255 5.2 12.2 0.00 0.00 0.00 82 1008.4
20260508095506 50 253 4.3 12.2 0.00 0.00 0.00 82 1008.4
20260508095006 50 254 4.3 12.2 0.00 0.00 0.00 82 1008.4
20260508094507 50 262 4.3 12.2 0.00 0.00 0.00 82 1008.4
20260508094007 50 239 5.2 11.3 0.00 0.00 0.00 82 1008.4
20260508093006 50 262 4.3 13.0 0.00 0.00 0.00 82 1008.4
20260508092505 50 234 6.1 11.3 0.00 0.00 0.00 82 1008.4
20260508092006 50 245 4.3 10.4 0.00 0.00 0.00 82 1008.4
20260508091506 50 261 3.5 13.9 0.00 0.00 0.00 82 1008.4
20260508091008 50 240 5.2 13.9 0.00 0.00 0.00 82 1008.4
20260508090506 50 258 4.3 12.2 0.00 0.00 0.00 82 1008.4
20260508090006 50 244 4.3 12.2 0.00 0.00 0.00 82 1008.4
20260508085008 50 239 3.5 10.4 0.00 0.00 0.00 82 1008.4
20260508084557 50 241 2.6 10.4 0.00 0.00 0.00 82 1008.4
20260508083506 50 251 3.5 10.4 0.00 0.00 0.00 82 1008.4
20260508083006 50 260 2.6 6.1 0.00 0.00 0.00 82 1008.4
20260508082506 50 249 1.7 5.2 0.00 0.00 0.00 82 1008.4
20260508081506 50 273 1.7 8.7 0.00 0.00 0.00 82 1008.4
20260508081006 50 271 1.7 7.0 0.00 0.00 0.00 82 1008.4
20260508080006 50 246 1.7 8.7 0.00 0.00 0.00 82 1008.4
20260508075006 50 269 1.7 7.8 0.00 0.00 0.00 82 1008.4
20260508074506 50 216 2.6 7.8 0.00 0.00 0.00 82 1008.4
20260508073505 50 258 0.9 8.7 0.00 0.00 0.00 82 1008.4
20260508073006 50 262 2.6 10.4 0.00 0.00 0.00 82 1008.4
20260508072506 50 247 2.6 10.4 0.00 0.00 0.00 82 1008.4
20260508072006 50 242 2.6 10.4 0.00 0.00 0.00 82 1008.4
20260508071506 50 268 0.9 6.1 0.00 0.00 0.00 82 1008.4
20260508071006 50 291 1.7 8.7 0.00 0.00 0.00 82 1008.4
20260508070506 50 253 2.6 8.7 0.00 0.00 0.00 82 1008.4
20260508070006 50 257 1.7 8.7 0.00 0.00 0.00 82 1008.4
20260508065506 50 254 2.6 7.0 0.00 0.00 0.00 82 1008.4
20260508065007 50 286 1.7 6.1 0.00 0.00 0.00 82 1008.4
20260508064507 50 239 1.7 7.0 0.00 0.00 0.00 82 1008.4
20260508064015 50 257 1.7 7.8 0.00 0.00 0.00 82 1008.4
20260508063506 50 278 1.7 7.8 0.00 0.00 0.00 82 1008.4
20260507232034 50 244 1.7 5.2 0.00 0.00 0.00 82 1008.4
20260507231604 50 256 1.7 5.2 0.00 0.00 0.00 82 1008.4
20260507230014 50 236 1.7 8.7 0.00 0.00 0.00 82 1008.4
20260507225534 50 311 1.7 8.7 0.00 0.00 0.00 82 1008.4
20260507225024 50 262 2.6 8.7 0.00 0.00 0.00 82 1008.4
20260507224522 51 249 2.6 10.4 0.00 0.00 0.00 82 1008.4
20260507224013 51 222 1.7 10.4 0.00 0.00 0.00 82 1008.5
20260507223119 51 265 2.6 10.4 0.00 0.00 0.00 80 1008.6
20260507222518 51 339 1.7 6.1 0.00 0.00 0.00 81 1008.6
20260507221016 51 261 1.7 6.1 0.00 0.00 0.00 81 1008.5
20260507220516 51 225 1.7 6.1 0.00 0.00 0.00 81 1008.5
20260507220132 51 210 1.7 11.3 0.00 0.00 0.00 80 1008.6
20260507215516 51 252 1.7 11.3 0.00 0.00 0.00 80 1008.6
20260507215011 51 216 2.6 11.3 0.00 0.00 0.00 80 1008.7
20260507214513 51 231 2.6 7.8 0.00 0.00 0.00 79 1008.7
20260507213515 51 259 2.6 8.7 0.00 0.00 0.00 79 1008.8
20260507213011 51 237 2.6 7.8 0.00 0.00 0.00 79 1008.8
20260507212519 50 232 1.7 6.1 0.00 0.00 0.00 80 1008.8
20260507212010 50 228 1.7 6.1 0.00 0.00 0.00 80 1008.8
20260507211519 50 219 1.7 6.1 0.00 0.00 0.00 80 1008.9
20260507211009 50 265 0.9 5.2 0.00 0.00 0.00 80 1008.8
20260507210531 50 223 0.9 5.2 0.00 0.00 0.00 80 1008.8
20260507210013 50 276 1.7 5.2 0.00 0.00 0.00 80 1008.8
20260507205511 50 198 0.9 6.1 0.00 0.00 0.00 79 1008.7
20260507204513 50 197 2.6 7.0 0.00 0.00 0.00 79 1008.5
20260507203019 51 182 2.6 13.0 0.00 0.00 0.00 78 1008.3
20260507202525 51 242 3.5 13.0 0.00 0.00 0.00 77 1008.2
20260507202016 51 153 1.7 13.0 0.00 0.00 0.00 76 1008.2
20260507201010 52 235 3.5 8.7 0.00 0.00 0.00 75 1008.1
20260507200512 52 285 1.7 10.4 0.00 0.00 0.00 73 1008.1
20260507200007 53 219 1.7 10.4 0.00 0.00 0.00 72 1008.1
20260507195508 53 253 2.6 13.0 0.00 0.00 0.00 71 1008.1
20260507195009 53 248 1.7 13.0 0.00 0.00 0.00 70 1008.1
20260507194509 54 219 4.3 13.0 0.00 0.00 0.00 69 1008.1
20260507194008 54 242 2.6 11.3 0.00 0.00 0.00 69 1008.1
20260507193509 54 245 4.3 13.9 0.00 0.00 0.00 68 1008.1
20260507193009 54 244 4.3 13.9 0.00 0.00 0.00 68 1008.0
20260507192507 54 254 6.1 13.9 0.00 0.00 0.00 67 1008.0
20260507192009 54 247 4.3 13.9 0.00 0.00 0.00 65 1008.0
20260507191508 55 262 2.6 8.7 0.00 0.00 0.00 65 1008.0
20260507191007 55 275 3.5 10.4 0.00 0.00 0.00 64 1007.9
20260507190506 55 272 4.3 11.3 0.00 0.00 0.00 63 1007.9
20260507190007 56 259 4.3 11.3 0.00 0.00 0.00 62 1008.0
20260507185506 56 252 2.6 11.3 0.00 0.00 0.00 61 1007.9
20260507185007 56 250 4.3 17.4 0.00 0.00 0.00 61 1007.9
20260507184506 56 248 4.3 17.4 0.00 0.00 0.00 61 1007.8
20260507184008 56 244 3.5 17.4 0.00 0.00 0.00 62 1007.6